SBRP Airport Information

Runway Information
Runway 18 Length 6890 ft width 148 ft
Elevation 0 ft Threshold 0 ft Heading 0
Runway 36 Length 6890 ft Width 148 ft
Elevation 0 ft Threshold 0 ft Heading 0
Airport Frequencies
Type AFIS Name RIBEIRAO R Frequency 118 MHZ
Type APP Name RIBEIRAO A Frequency 119.55 MHZ
Type ATIS Name ATIS Frequency 127.425 MHZ
Type TWR Name RIBEIRAO T Frequency 118 MHZ
Airport Navaids
Type NDB Name Ribeirao Frequency 330 KHZ
Airport Weather Information & NOTAM
ADDS - METARS form results

(0810 UTC 22 May 2018)
 
METAR text: SBRP 220800Z 12005KT CAVOK 09/08 Q1019
Conditions at: SBRP (LEITE LOPES/RIBE, BR) observed 0800 UTC 22 May 2018
Temperature: 9.0°C (48°F)
Dewpoint: 8.0°C (46°F) [RH = 93%]
Pressure (altimeter): 30.09 inches Hg (1019.0 mb)
Winds: from the ESE (120 degrees) at 6 MPH (5 knots; 2.6 m/s)
Visibility: 6 or more miles (10+ km)
Ceiling: ceiling and visibility are OK
Clouds: unknown
Weather: no significant weather observed at this time